Weather History for Bradford, PA

Change the Weather History Date:

Saturday, February 16, 2013

  Actual Average Record
Temperature  
Mean Temperature 16 °F 24 °F  
Max Temperature 24 °F 33 °F 59 °F (1990)
Min Temperature 7 °F 15 °F -11 °F (1963)
Degree Days  
Heating Degree Days 48 36  
Month to date heating degree days 589  
Since 1 July heating degree days 5000  
Cooling Degree Days 0 0  
Month to date cooling degree days 0  
Year to date cooling degree days 0  
Moisture  
Dew Point 8 °F    
Average Humidity 67    
Maximum Humidity 81    
Minimum Humidity 46    
Precipitation  
Precipitation 0.00 in 0.08 in 0.71 in (1993)
Month to date precipitation 1.34  
Year to date precipitation 4.63  
Sea Level Pressure  
Sea Level Pressure 29.95 in    
Wind  
Wind Speed 4 mph (NW)    
Max Wind Speed 14 mph    
Max Gust Speed -    
Visibility 8 miles    
Events Snow    
T = Trace of Precipitation, MM = Missing Value Source: NWS Daily Summary

Daily Weather History Graph

Daily Weather History Graph

Search for Another Location

Airport:

Trip Planner

Search our weather history database for the weather conditions in past years. The results will help you decide how hot, cold, wet, or windy it might be!

Date:

Astronomy

Feb. 16, 2013 Rise Set
Actual Time 7:08 AM EST 5:49 PM EST
Civil Twilight 6:39 AM EST 6:17 PM EST
Nautical Twilight 6:07 AM EST 6:50 PM EST
Astronomical Twilight 5:35 AM EST 7:22 PM EST
Moon 10:13 AM EST (2/16) No Moon Set
Length of Visible Light 11h 37m
Length of Day
10h 40m
Waxing Crescent, 39% of the Moon is Illuminated
Feb 16
Waxing Crescent
Feb 17
First Quarter
Feb 25
Full
Mar 4
Last Quarter
Mar 11
New

Hourly Weather History & Observations

Time (EST) Temp. Windchill Dew Point Humidity Pressure Visibility Wind Dir Wind Speed Gust Speed Precip Events Conditions
12:53 AM 19.9 °F 8.6 °F 12.9 °F 74% 30.03 in 10.0 mi NW 10.4 mph - 0.00 in   Overcast
1:40 AM 18.0 °F 11.1 °F 10.9 °F 74% 29.95 in 10.0 mi NNW 4.6 mph - N/A   Mostly Cloudy
1:53 AM 18.0 °F - 10.9 °F 74% 30.02 in 10.0 mi Calm Calm - N/A   Overcast
2:53 AM 14.0 °F - 9.0 °F 80% 30.02 in 10.0 mi Calm Calm - N/A   Clear
3:32 AM 12.9 °F - 8.1 °F 81% 29.93 in 9.0 mi Calm Calm - N/A   Mostly Cloudy
3:53 AM 12.9 °F - 8.1 °F 81% 30.01 in 6.0 mi Calm Calm - 0.00 in Snow Light Snow
4:04 AM 12.9 °F - 8.1 °F 81% 29.93 in 9.0 mi Calm Calm - 0.00 in   Overcast
4:12 AM 14.0 °F - 9.0 °F 80% 29.93 in 10.0 mi Calm Calm - 0.00 in   Overcast
4:29 AM 15.1 °F - 10.0 °F 80% 29.93 in 10.0 mi Calm Calm - 0.00 in   Overcast
4:53 AM 16.0 °F 10.4 °F 10.0 °F 77% 30.01 in 2.5 mi NW 3.5 mph - 0.00 in Snow Light Snow
5:07 AM 17.1 °F 10.0 °F 10.0 °F 74% 29.93 in 8.0 mi NW 4.6 mph - 0.00 in   Overcast
5:53 AM 17.1 °F 10.0 °F 10.0 °F 74% 30.01 in 8.0 mi NW 4.6 mph - 0.00 in   Overcast
6:53 AM 17.1 °F - 9.0 °F 71% 30.01 in 8.0 mi Calm Calm - 0.00 in   Overcast
7:48 AM 17.6 °F - 8.6 °F 68% 29.94 in 10.0 mi Calm Calm - 0.00 in   Overcast
7:53 AM 17.1 °F - 8.1 °F 68% 30.02 in 10.0 mi Calm Calm - 0.00 in   Overcast
8:53 AM 18.0 °F - 7.0 °F 62% 30.01 in 10.0 mi Calm Calm - N/A   Clear
9:53 AM 19.9 °F - 5.0 °F 52% 30.00 in 10.0 mi Calm Calm - N/A   Clear
10:53 AM 23.0 °F 18.4 °F 6.1 °F 48% 29.98 in 10.0 mi Variable 3.5 mph - N/A   Partly Cloudy
11:53 AM 21.9 °F 15.7 °F 6.1 °F 51% 29.97 in 10.0 mi West 4.6 mph - N/A   Scattered Clouds
12:53 PM 23.0 °F 14.7 °F 6.1 °F 48% 29.94 in 10.0 mi Variable 6.9 mph - N/A   Overcast
1:53 PM 24.1 °F 17.0 °F 6.1 °F 46% 29.92 in 10.0 mi WNW 5.8 mph - N/A   Overcast
2:53 PM 24.1 °F 18.2 °F 6.1 °F 46% 29.91 in 10.0 mi NNW 4.6 mph - N/A   Overcast
3:53 PM 24.1 °F 16.0 °F 7.0 °F 48% 29.92 in 10.0 mi NNW 6.9 mph - N/A   Overcast
4:53 PM 21.9 °F 11.0 °F 8.1 °F 55% 29.92 in 10.0 mi NW 10.4 mph - N/A   Overcast
5:16 PM 21.0 °F 8.1 °F 14.0 °F 74% 29.85 in 1.8 mi WNW 13.8 mph - 0.00 in Snow Light Snow
5:28 PM 19.9 °F 7.3 °F 14.0 °F 78% 29.85 in 0.8 mi NW 12.7 mph - 0.00 in Snow Light Snow
5:53 PM 19.9 °F 9.3 °F 14.0 °F 78% 29.94 in 1.2 mi NW 9.2 mph - 0.00 in Snow Light Snow
6:05 PM 19.9 °F 9.3 °F 12.9 °F 74% 29.86 in 3.0 mi NW 9.2 mph - 0.00 in Snow Light Snow
6:35 PM 19.0 °F 9.0 °F 10.0 °F 68% 29.87 in 9.0 mi NW 8.1 mph - 0.00 in   Overcast
6:53 PM 18.0 °F 7.7 °F 8.1 °F 65% 29.96 in 10.0 mi NW 8.1 mph - 0.00 in   Overcast
7:53 PM 18.0 °F 7.7 °F 6.1 °F 60% 29.95 in 10.0 mi NNW 8.1 mph - N/A   Overcast
8:53 PM 16.0 °F 5.3 °F 3.0 °F 57% 29.94 in 10.0 mi NW 8.1 mph - N/A   Mostly Cloudy
9:53 PM 12.9 °F 5.2 °F 1.9 °F 62% 29.93 in 10.0 mi NNW 4.6 mph - N/A   Clear
10:53 PM 9.0 °F - 1.9 °F 73% 29.92 in 10.0 mi Calm Calm - N/A   Clear
11:53 PM 7.0 °F - 1.0 °F 77% 29.90 in 10.0 mi Calm Calm - N/A   Clear